Location: Heilbronn
(49.1548°N, 9.2780°E)
Time: 13:09:09
(UTC+01:00)

ISS - Pass Details

Date: 15 November 2017
Orbit: 402 x 407 km, 51.6° (Epoch: 21 November)

Event Time Altitude Azimuth Distance (km) Brightness Sun altitude
Exits shadow 06:28:01 14° 257° (WSW) 1,261 -1.9 -10.7°
Maximum altitude 06:29:42 19° 220° (SW) 1,028 -2.0 -10.4°
Drops below altitude 10° 06:32:06 10° 172° (S) 1,449 -0.7 -10.0°
Sets 06:34:32 0° 154° (SSE) 2,304 0.7 -9.6°
